Orbital Elements at Epoch 2459200.5 (2020-Dec-17.0) TDB
Reference: JPL 23 (heliocentric ecliptic J2000)
Element | Value | Uncertainty (1-sigma) | Units |
e | .1485520468924171 | 4.7917e-08 | |
a | 2.25535192657683 | 8.5441e-09 | au |
q | 1.920314781421086 | 1.067e-07 | au |
i | 5.749208294412457 | 5.4289e-06 | deg |
node | 358.7965860124277 | 4.1263e-05 | deg |
peri | 22.84968762403347 | 4.5577e-05 | deg |
M | 167.8879928991276 | 1.8571e-05 | deg |
tp | 2458623.551508873483 (2019-May-20.05150887) | 6.2783e-05 | TDB |
period | 1237.14300956793 3.39 | 7.0301e-06 1.925e-08 | d yr |
n | .2909930357410573 | 1.6536e-09 | deg/d |
Q | 2.590389071732575 | 9.8134e-09 | au |
|
| | Orbit Determination Parameters
Additional Information
|